Total_Precipitation_Accumulation
0.35 0.31 0.27 0.28 0.32 0.36 0.41 0.49 0.55 0.72 0.84 0.91 1.02 1.21 1.38 1.56 1.71 1.80 1.69 1.54 1.51 1.69 1.83 1.77 1.86 1.87 1.75 1.77 1.84 1.89 1.84 1.63 1.47 1.53 1.41 1.13 0.88 0.94 0.91 0.86 0.90 0.95 1.06
0.25 0.21 0.16 0.17 0.21 0.24 0.28 0.35 0.43 0.51 0.65 0.82 1.04 1.25 1.55 1.64 1.71 1.83 1.86 1.79 1.73 1.91 1.96 2.04 2.14 2.18 2.18 2.14 2.03 2.16 2.31 2.03 1.75 1.85 2.14 1.75 1.34 0.97 0.76 0.83 0.86 0.96 1.20
0.18 0.14 0.13 0.13 0.18 0.19 0.20 0.27 0.39 0.51 0.73 0.98 1.29 1.59 1.85 1.93 1.97 1.91 1.94 2.01 2.06 2.14 2.17 2.22 2.29 2.32 2.17 2.17 2.28 2.42 2.76 2.56 2.18 1.97 2.22 2.07 1.75 1.42 0.98 0.87 0.91 0.99 1.17
0.17 0.14 0.14 0.14 0.15 0.18 0.23 0.36 0.52 0.71 0.98 1.31 1.67 1.92 2.18 2.30 2.13 2.08 2.09 2.09 2.05 2.08 2.19 2.20 2.20 2.17 2.11 2.19 2.26 2.32 2.73 2.93 2.64 2.29 1.90 1.69 1.65 1.73 1.45 1.05 0.99 1.06 1.07
0.22 0.19 0.20 0.21 0.25 0.32 0.39 0.55 0.80 1.09 1.37 1.60 1.80 2.02 2.16 2.19 2.14 2.07 2.06 1.99 1.96 1.94 1.98 2.00 2.09 2.11 2.16 2.21 2.37 2.50 2.77 2.80 2.79 2.61 2.39 2.17 1.85 1.51 1.57 1.52 1.24 1.18 1.08
0.26 0.26 0.28 0.36 0.43 0.49 0.63 0.81 1.00 1.29 1.46 1.57 1.68 1.86 2.02 2.07 2.07 2.04 2.04 2.04 2.02 1.92 1.85 1.82 1.89 2.03 2.18 2.23 2.32 2.48 2.72 2.83 2.91 2.82 2.55 2.46 2.29 2.00 1.87 1.61 1.46 1.45 1.24
0.36 0.35 0.43 0.58 0.67 0.71 0.81 0.97 1.06 1.25 1.36 1.38 1.46 1.60 1.67 1.73 1.77 1.77 1.73 1.67 1.64 1.64 1.68 1.76 1.84 1.98 2.08 2.15 2.27 2.42 2.47 2.59 2.82 2.82 2.64 2.44 2.25 2.23 2.10 1.98 1.66 1.48 1.30
0.53 0.62 0.74 0.84 0.91 0.93 0.90 0.94 1.09 1.13 1.12 1.13 1.13 1.25 1.33 1.39 1.46 1.45 1.43 1.47 1.52 1.55 1.51 1.55 1.63 1.84 2.03 2.11 2.21 2.23 2.20 2.26 2.44 2.43 2.49 2.47 2.20 2.15 2.04 2.02 2.09 1.82 1.62
0.77 0.98 1.15 1.26 1.33 1.26 1.07 0.94 0.95 0.95 0.94 1.01 1.03 1.09 1.17 1.20 1.22 1.25 1.20 1.29 1.34 1.35 1.31 1.35 1.38 1.48 1.70 1.94 2.10 2.06 1.97 1.94 2.09 2.16 2.25 2.37 2.40 2.31 2.20 2.16 2.21 2.16 1.91
1.20 1.46 1.68 1.79 1.76 1.58 1.32 1.05 0.90 0.86 0.84 0.88 0.94 1.00 1.03 1.03 1.01 1.05 0.98 1.03 1.13 1.13 1.12 1.13 1.20 1.34 1.45 1.65 1.87 1.97 1.90 1.88 1.94 2.05 2.18 2.30 2.40 2.45 2.25 2.20 2.17 2.03 1.95
1.63 1.78 1.94 1.98 1.72 1.54 1.30 1.05 0.90 0.91 0.93 0.94 0.96 0.96 0.91 0.89 0.87 0.84 0.81 0.85 0.92 0.91 0.94 1.12 1.18 1.24 1.32 1.52 1.79 1.96 1.97 1.89 1.89 1.86 1.94 2.11 2.20 2.41 2.37 2.28 2.17 2.04 1.88
1.41 1.49 1.57 1.53 1.49 1.43 1.24 1.07 0.98 0.99 1.04 1.06 1.07 0.99 0.91 0.85 0.80 0.77 0.69 0.70 0.68 0.67 0.79 0.92 0.97 1.03 1.07 1.25 1.54 1.74 1.79 1.77 1.68 1.65 1.77 1.98 2.15 2.36 2.44 2.39 2.24 2.15 2.02
1.24 1.23 1.25 1.30 1.33 1.30 1.16 1.13 1.09 1.10 1.10 1.10 1.01 0.93 0.85 0.74 0.66 0.58 0.54 0.60 0.62 0.69 0.80 0.89 0.94 0.97 1.03 1.07 1.17 1.33 1.46 1.45 1.40 1.43 1.49 1.54 1.74 2.02 2.18 2.19 2.21 2.24 2.22
0.99 0.98 1.06 1.14 1.20 1.17 1.13 1.08 1.02 1.06 1.16 1.22 1.13 1.02 0.90 0.78 0.71 0.62 0.57 0.55 0.58 0.65 0.74 0.82 0.88 0.95 1.00 1.01 1.02 1.04 1.11 1.13 1.19 1.25 1.28 1.32 1.38 1.61 1.78 1.86 2.04 2.27 2.29
0.66 0.71 0.77 0.78 0.75 0.71 0.76 0.79 0.84 0.95 1.10 1.24 1.23 1.09 0.91 0.78 0.71 0.66 0.58 0.56 0.57 0.57 0.65 0.72 0.74 0.79 0.88 0.97 1.00 0.87 0.83 0.93 1.04 1.06 1.01 1.04 1.13 1.26 1.37 1.43 1.78 2.13 2.31
0.43 0.42 0.44 0.44 0.43 0.39 0.37 0.38 0.46 0.62 0.86 1.12 1.10 0.91 0.73 0.60 0.54 0.55 0.54 0.52 0.50 0.55 0.60 0.57 0.61 0.71 0.75 0.91 0.90 0.74 0.72 0.77 0.87 0.96 0.94 0.83 0.81 0.86 0.95 1.03 1.20 1.48 1.73
0.31 0.30 0.30 0.30 0.29 0.28 0.27 0.29 0.37 0.49 0.65 0.77 0.75 0.66 0.55 0.52 0.55 0.56 0.51 0.50 0.50 0.51 0.53 0.51 0.51 0.56 0.70 0.75 0.62 0.61 0.65 0.71 0.77 0.83 0.89 0.81 0.70 0.77 0.82 0.92 1.00 1.01 1.09
0.22 0.22 0.21 0.22 0.25 0.26 0.30 0.34 0.38 0.43 0.47 0.50 0.52 0.47 0.45 0.47 0.50 0.51 0.50 0.57 0.61 0.59 0.58 0.60 0.57 0.55 0.61 0.61 0.50 0.55 0.57 0.63 0.68 0.77 0.86 0.91 0.84 0.83 0.94 0.94 0.97 0.92 0.88
0.14 0.13 0.12 0.13 0.15 0.15 0.16 0.17 0.20 0.21 0.22 0.21 0.22 0.23 0.23 0.26 0.28 0.29 0.36 0.47 0.54 0.57 0.61 0.64 0.64 0.57 0.55 0.58 0.49 0.51 0.56 0.61 0.66 0.68 0.75 0.83 0.81 0.95 1.05 1.04 1.16 1.14 1.02
0.11 0.10 0.09 0.10 0.12 0.12 0.12 0.10 0.10 0.11 0.11 0.10 0.11 0.13 0.14 0.15 0.15 0.18 0.23 0.29 0.30 0.36 0.46 0.49 0.51 0.55 0.53 0.67 0.56 0.55 0.57 0.65 0.74 0.77 0.75 0.89 0.90 1.00 0.98 0.95 1.18 1.20 1.08
0.11 0.11 0.10 0.10 0.11 0.12 0.12 0.11 0.11 0.10 0.12 0.14 0.16 0.17 0.16 0.16 0.16 0.16 0.19 0.23 0.23 0.27 0.31 0.35 0.40 0.48 0.56 0.70 0.67 0.69 0.68 0.73 0.86 0.84 0.77 0.72 0.85 0.74 0.82 0.86 0.88 1.10 1.11
0.10 0.11 0.10 0.10 0.11 0.12 0.12 0.12 0.13 0.13 0.13 0.14 0.15 0.16 0.16 0.17 0.16 0.17 0.20 0.23 0.25 0.24 0.25 0.26 0.31 0.38 0.44 0.54 0.60 0.61 0.65 0.74 0.82 0.86 0.75 0.73 0.81 0.65 0.64 0.65 0.77 0.95 1.06
0.08 0.09 0.11 0.11 0.12 0.12 0.12 0.11 0.13 0.14 0.14 0.14 0.15 0.17 0.18 0.17 0.15 0.17 0.20 0.22 0.25 0.26 0.28 0.29 0.34 0.41 0.45 0.49 0.49 0.48 0.51 0.57 0.65 0.68 0.72 0.72 0.69 0.63 0.58 0.58 0.66 0.74 0.85
0.08 0.09 0.11 0.12 0.13 0.14 0.13 0.15 0.14 0.13 0.13 0.15 0.16 0.18 0.18 0.18 0.18 0.19 0.20 0.22 0.24 0.28 0.31 0.36 0.39 0.44 0.47 0.49 0.47 0.51 0.55 0.53 0.54 0.55 0.55 0.57 0.60 0.62 0.60 0.59 0.62 0.68 0.79
0.11 0.14 0.14 0.14 0.14 0.15 0.16 0.18 0.18 0.15 0.13 0.14 0.15 0.15 0.16 0.17 0.18 0.18 0.19 0.20 0.21 0.27 0.36 0.41 0.44 0.43 0.41 0.39 0.41 0.52 0.61 0.67 0.73 0.78 0.70 0.69 0.68 0.65 0.60 0.57 0.59 0.63 0.70
0.12 0.15 0.16 0.16 0.15 0.15 0.17 0.18 0.20 0.22 0.22 0.19 0.16 0.15 0.15 0.16 0.16 0.17 0.18 0.20 0.21 0.26 0.30 0.31 0.33 0.33 0.33 0.34 0.36 0.41 0.52 0.62 0.76 0.91 0.90 0.93 0.93 0.87 0.77 0.67 0.60 0.56 0.57